EVA112 RCTP-ROAH

Flight info

Callsign EVA112
Flight time 1h 4m
Altitude 37000
Route KUDOS1A KUDOS R595 SEDKU Y573 MJC Y57 VELNO
Aircraft A321/M-SDE3FGHIRWY/LB1

Departure

Time 2026-04-22 23:09
Airport Taiwan Taoyuan International Airport (RCTP)

Arrival

Time 2026-04-23 00:13
Airport Naha International Airport (ROAH)
Time Latitude Longitude Altitude Speed Heading
2026-04-22 22:35 25.07290 121.23385 101 ft 0 kts 319°
2026-04-22 22:58 25.07275 121.23399 100 ft 4 kts 322°
2026-04-22 22:58 25.07253 121.23416 99 ft 4 kts 327°
2026-04-22 22:58 25.07230 121.23431 99 ft 4 kts 337°
2026-04-22 22:59 25.07205 121.23439 99 ft 4 kts
2026-04-22 22:59 25.07188 121.23433 99 ft 1 kts 50°
2026-04-22 22:59 25.07185 121.23430 99 ft 0 kts 50°
2026-04-22 23:01 25.07193 121.23441 100 ft 4 kts 50°
2026-04-22 23:02 25.07217 121.23471 100 ft 7 kts 49°
2026-04-22 23:02 25.07255 121.23520 100 ft 9 kts 49°
2026-04-22 23:02 25.07297 121.23572 102 ft 9 kts 49°
2026-04-22 23:02 25.07347 121.23636 99 ft 13 kts 49°
2026-04-22 23:03 25.07415 121.23722 99 ft 16 kts 49°
2026-04-22 23:03 25.07489 121.23816 99 ft 16 kts 49°
2026-04-22 23:03 25.07560 121.23905 101 ft 15 kts 49°
2026-04-22 23:03 25.07626 121.23990 100 ft 14 kts 49°
2026-04-22 23:04 25.07690 121.24071 102 ft 14 kts 49°
2026-04-22 23:04 25.07753 121.24151 101 ft 14 kts 49°
2026-04-22 23:04 25.07828 121.24245 101 ft 18 kts 49°
2026-04-22 23:04 25.07912 121.24353 101 ft 19 kts 49°
2026-04-22 23:05 25.07999 121.24463 99 ft 19 kts 49°
2026-04-22 23:05 25.08090 121.24577 101 ft 20 kts 49°
2026-04-22 23:05 25.08183 121.24696 99 ft 21 kts 49°
2026-04-22 23:05 25.08280 121.24819 99 ft 21 kts 49°
2026-04-22 23:06 25.08376 121.24941 100 ft 20 kts 49°
2026-04-22 23:06 25.08442 121.25044 99 ft 14 kts 84°
2026-04-22 23:06 25.08402 121.25107 97 ft 0 kts 140°
2026-04-22 23:07 25.08382 121.25125 96 ft 6 kts 140°
2026-04-22 23:07 25.08335 121.25168 93 ft 5 kts 143°
2026-04-22 23:07 25.08299 121.25161 93 ft 7 kts 214°
2026-04-22 23:08 25.08250 121.25101 94 ft 18 kts 229°
2026-04-22 23:08 25.08019 121.24809 92 ft 82 kts 229°
2026-04-22 23:08 25.07530 121.24188 95 ft 130 kts 229°
2026-04-22 23:08 25.06856 121.23338 187 ft 158 kts 229°
2026-04-22 23:09 25.06140 121.22412 721 ft 159 kts 231°
2026-04-22 23:09 25.05434 121.21480 1310 ft 158 kts 231°
2026-04-22 23:09 25.04708 121.20557 1933 ft 163 kts 229°
2026-04-22 23:09 25.03909 121.19579 2199 ft 181 kts 230°
2026-04-22 23:10 25.03054 121.18510 2569 ft 190 kts 230°
2026-04-22 23:10 25.02204 121.17333 2904 ft 207 kts 240°
2026-04-22 23:10 25.01958 121.15691 3161 ft 237 kts 277°
2026-04-22 23:10 25.02800 121.14028 3634 ft 265 kts 310°
2026-04-22 23:11 25.04314 121.12798 4398 ft 274 kts 323°
2026-04-22 23:11 25.05993 121.11782 5231 ft 275 kts 327°
2026-04-22 23:11 25.07690 121.10804 6076 ft 275 kts 326°
2026-04-22 23:11 25.09360 121.09791 6862 ft 273 kts 324°
2026-04-22 23:12 25.10995 121.08725 7632 ft 273 kts 323°
2026-04-22 23:12 25.12609 121.07613 8358 ft 274 kts 321°
2026-04-22 23:12 25.14217 121.06464 9083 ft 276 kts 321°
2026-04-22 23:12 25.15827 121.05294 9810 ft 278 kts 320°
2026-04-22 23:13 25.17470 121.04125 10313 ft 291 kts 326°
2026-04-22 23:13 25.19538 121.03534 10441 ft 329 kts 354°
2026-04-22 23:13 25.21858 121.04151 10660 ft 361 kts 23°
2026-04-22 23:13 25.23881 121.05893 11137 ft 377 kts 42°
2026-04-22 23:14 25.25605 121.08105 11719 ft 383 kts 50°
2026-04-22 23:14 25.27153 121.10519 12330 ft 387 kts 54°
2026-04-22 23:14 25.28646 121.13015 12942 ft 391 kts 54°
2026-04-22 23:14 25.30164 121.15516 13554 ft 393 kts 53°
2026-04-22 23:15 25.31747 121.18000 14091 ft 396 kts 52°
2026-04-22 23:15 25.33391 121.20454 14634 ft 399 kts 50°
2026-04-22 23:15 25.35085 121.22894 15158 ft 402 kts 50°
2026-04-22 23:15 25.36810 121.25337 15691 ft 405 kts 49°
2026-04-22 23:16 25.38552 121.27799 16217 ft 408 kts 50°
2026-04-22 23:16 25.40014 121.30505 16697 ft 415 kts 68°
2026-04-22 23:16 25.40565 121.33640 17177 ft 419 kts 91°
2026-04-22 23:16 25.40091 121.36762 17647 ft 418 kts 113°
2026-04-22 23:17 25.38673 121.39533 18122 ft 413 kts 134°
2026-04-22 23:17 25.36550 121.41619 18510 ft 408 kts 149°
2026-04-22 23:17 25.34310 121.43580 18912 ft 416 kts 140°
2026-04-22 23:17 25.32498 121.46108 19290 ft 426 kts 122°
2026-04-22 23:18 25.31206 121.49127 19686 ft 431 kts 116°
2026-04-22 23:18 25.30054 121.52152 20072 ft 434 kts 114°
2026-04-22 23:18 25.28940 121.55263 20454 ft 437 kts 113°
2026-04-22 23:18 25.27849 121.58408 20865 ft 440 kts 113°
2026-04-22 23:19 25.27108 121.60546 21144 ft 442 kts 113°
2026-04-22 23:19 25.25634 121.64757 21596 ft 446 kts 113°
2026-04-22 23:19 25.24494 121.67950 21969 ft 448 kts 114°
2026-04-22 23:19 25.23714 121.70115 22223 ft 450 kts 114°
2026-04-22 23:20 25.22546 121.73330 22579 ft 452 kts 114°
2026-04-22 23:20 25.21366 121.76561 22930 ft 455 kts 114°
2026-04-22 23:20 25.19787 121.80869 23388 ft 458 kts 114°
2026-04-22 23:20 25.18978 121.83078 23590 ft 460 kts 114°
2026-04-22 23:21 25.17779 121.86358 23893 ft 462 kts 114°
2026-04-22 23:21 25.16580 121.89650 24206 ft 463 kts 114°
2026-04-22 23:21 25.15376 121.92957 24523 ft 465 kts 114°
2026-04-22 23:21 25.14173 121.96271 24842 ft 466 kts 113°
2026-04-22 23:22 25.13232 121.99706 25148 ft 470 kts 103°
2026-04-22 23:22 25.12769 122.03285 25463 ft 473 kts 96°
2026-04-22 23:22 25.12467 122.06908 25775 ft 475 kts 96°
2026-04-22 23:22 25.12163 122.10542 26069 ft 477 kts 96°
2026-04-22 23:23 25.11857 122.14190 26366 ft 479 kts 96°
2026-04-22 23:23 25.11551 122.17854 26659 ft 481 kts 96°
2026-04-22 23:23 25.11242 122.21536 26949 ft 483 kts 96°
2026-04-22 23:23 25.10931 122.25230 27246 ft 485 kts 96°
2026-04-22 23:24 25.10618 122.28938 27535 ft 487 kts 96°
2026-04-22 23:24 25.10291 122.32661 27815 ft 489 kts 97°
2026-04-22 23:24 25.09937 122.36400 28098 ft 491 kts 97°
2026-04-22 23:24 25.09566 122.40150 28374 ft 493 kts 97°
2026-04-22 23:25 25.09186 122.43910 28642 ft 495 kts 97°
2026-04-22 23:25 25.08805 122.47694 28911 ft 497 kts 97°
2026-04-22 23:25 25.08431 122.51485 29165 ft 499 kts 97°
2026-04-22 23:25 25.08062 122.55300 29424 ft 501 kts 97°
2026-04-22 23:26 25.07697 122.59130 29666 ft 503 kts 97°
2026-04-22 23:26 25.07331 122.62974 29900 ft 505 kts 97°
2026-04-22 23:26 25.06963 122.66774 30100 ft 507 kts 97°
2026-04-22 23:26 25.06582 122.70642 30307 ft 509 kts 97°
2026-04-22 23:27 25.06192 122.74530 30496 ft 511 kts 97°
2026-04-22 23:27 25.05802 122.78428 30708 ft 513 kts 97°
2026-04-22 23:27 25.05414 122.82339 30969 ft 513 kts 97°
2026-04-22 23:27 25.05028 122.86253 31271 ft 513 kts 97°
2026-04-22 23:28 25.04643 122.90161 31556 ft 513 kts 97°
2026-04-22 23:28 25.04254 122.94072 31845 ft 513 kts 97°
2026-04-22 23:28 25.03862 122.97979 32136 ft 513 kts 97°
2026-04-22 23:28 25.03473 123.01883 32435 ft 513 kts 97°
2026-04-22 23:29 25.03086 123.05800 32731 ft 513 kts 97°
2026-04-22 23:29 25.02700 123.09709 33031 ft 513 kts 97°
2026-04-22 23:29 25.02311 123.13620 33327 ft 513 kts 97°
2026-04-22 23:29 25.01917 123.17521 33629 ft 513 kts 97°
2026-04-22 23:30 25.01518 123.21429 33916 ft 512 kts 97°
2026-04-22 23:30 25.01118 123.25328 34177 ft 512 kts 97°
2026-04-22 23:30 25.00719 123.29229 34445 ft 511 kts 97°
2026-04-22 23:30 25.00323 123.33122 34718 ft 511 kts 97°
2026-04-22 23:31 24.99928 123.37009 34989 ft 510 kts 97°
2026-04-22 23:31 24.99532 123.40891 35259 ft 510 kts 97°
2026-04-22 23:31 24.99134 123.44769 35523 ft 509 kts 97°
2026-04-22 23:31 24.98734 123.48648 35778 ft 509 kts 97°
2026-04-22 23:32 24.98334 123.52519 36029 ft 508 kts 97°
2026-04-22 23:32 24.97933 123.56388 36269 ft 508 kts 97°
2026-04-22 23:32 24.97527 123.60253 36502 ft 508 kts 97°
2026-04-22 23:32 24.97121 123.64120 36738 ft 507 kts 97°
2026-04-22 23:33 24.96314 123.71840 36836 ft 506 kts 97°
2026-04-22 23:33 24.95506 123.79528 36840 ft 505 kts 97°
2026-04-22 23:34 24.94693 123.87203 36838 ft 504 kts 97°
2026-04-22 23:34 24.93878 123.94875 36837 ft 504 kts 97°
2026-04-22 23:35 24.93052 124.02548 36839 ft 504 kts 97°
2026-04-22 23:35 24.92166 124.10212 36846 ft 504 kts 98°
2026-04-22 23:36 24.91253 124.17874 36867 ft 506 kts 98°
2026-04-22 23:36 24.90343 124.25529 36852 ft 503 kts 97°
2026-04-22 23:37 24.89441 124.33172 36853 ft 503 kts 97°
2026-04-22 23:37 24.88542 124.40807 36854 ft 502 kts 97°
2026-04-22 23:38 24.87638 124.48432 36857 ft 502 kts 97°
2026-04-22 23:38 24.86718 124.56055 36857 ft 502 kts 97°
2026-04-22 23:39 24.85793 124.63670 36857 ft 502 kts 97°
2026-04-22 23:39 24.84872 124.71279 36857 ft 501 kts 97°
2026-04-22 23:40 24.83962 124.78886 36858 ft 501 kts 97°
2026-04-22 23:40 24.83041 124.86483 36852 ft 500 kts 97°
2026-04-22 23:41 24.82112 124.94066 36855 ft 500 kts 97°
2026-04-22 23:41 24.81179 125.01645 36852 ft 499 kts 97°
2026-04-22 23:42 24.80248 125.09169 36849 ft 499 kts 97°
2026-04-22 23:42 24.79313 125.16732 36849 ft 499 kts 97°
2026-04-22 23:43 24.78617 125.24317 36832 ft 498 kts 88°
2026-04-22 23:43 24.78841 125.28108 36579 ft 495 kts 79°
2026-04-22 23:43 24.79601 125.31786 36334 ft 491 kts 68°
2026-04-22 23:44 24.80994 125.35180 36090 ft 484 kts 54°
2026-04-22 23:44 24.82777 125.38323 35850 ft 485 kts 53°
2026-04-22 23:44 24.84585 125.41459 35615 ft 486 kts 53°
2026-04-22 23:44 24.86396 125.44601 35382 ft 487 kts 53°
2026-04-22 23:45 24.88199 125.47756 35149 ft 487 kts 54°
2026-04-22 23:45 24.89997 125.50928 34922 ft 488 kts 54°
2026-04-22 23:45 24.91789 125.54106 34693 ft 489 kts 54°
2026-04-22 23:45 24.93585 125.57293 34465 ft 490 kts 54°
2026-04-22 23:46 24.95383 125.60481 34246 ft 490 kts 54°
2026-04-22 23:46 24.97182 125.63673 34033 ft 491 kts 54°
2026-04-22 23:46 24.98985 125.66870 33789 ft 491 kts 54°
2026-04-22 23:46 25.00787 125.70070 33531 ft 492 kts 54°
2026-04-22 23:47 25.02590 125.73274 33277 ft 491 kts 54°
2026-04-22 23:47 25.04388 125.76466 33028 ft 489 kts 54°
2026-04-22 23:47 25.06179 125.79653 32772 ft 488 kts 54°
2026-04-22 23:47 25.07959 125.82822 32520 ft 486 kts 54°
2026-04-22 23:48 25.09737 125.85986 32283 ft 484 kts 54°
2026-04-22 23:48 25.11506 125.89133 32044 ft 482 kts 54°
2026-04-22 23:48 25.13267 125.92273 31796 ft 480 kts 55°
2026-04-22 23:48 25.15022 125.95402 31555 ft 478 kts 55°
2026-04-22 23:49 25.16765 125.98516 31322 ft 477 kts 55°
2026-04-22 23:49 25.18505 126.01626 31084 ft 475 kts 55°
2026-04-22 23:49 25.20238 126.04720 30853 ft 473 kts 55°
2026-04-22 23:49 25.21964 126.07802 30621 ft 471 kts 55°
2026-04-22 23:50 25.23675 126.10866 30229 ft 467 kts 55°
2026-04-22 23:50 25.25373 126.13910 29672 ft 465 kts 55°
2026-04-22 23:50 25.27059 126.16936 29166 ft 460 kts 55°
2026-04-22 23:50 25.28732 126.19937 28661 ft 456 kts 55°
2026-04-22 23:51 25.30389 126.22910 28181 ft 453 kts 55°
2026-04-22 23:51 25.32032 126.25858 27687 ft 449 kts 55°
2026-04-22 23:51 25.33659 126.28783 27209 ft 445 kts 55°
2026-04-22 23:51 25.35271 126.31685 26743 ft 441 kts 55°
2026-04-22 23:52 25.36869 126.34567 26281 ft 438 kts 56°
2026-04-22 23:52 25.38454 126.37422 25838 ft 434 kts 55°
2026-04-22 23:52 25.40029 126.40255 25400 ft 430 kts 55°
2026-04-22 23:52 25.41587 126.43059 24969 ft 427 kts 55°
2026-04-22 23:53 25.43137 126.45846 24540 ft 423 kts 55°
2026-04-22 23:53 25.44672 126.48613 24118 ft 420 kts 56°
2026-04-22 23:53 25.46194 126.51366 23694 ft 418 kts 56°
2026-04-22 23:53 25.47706 126.54102 23248 ft 416 kts 56°
2026-04-22 23:54 25.49207 126.56821 22801 ft 412 kts 56°
2026-04-22 23:54 25.50691 126.59516 22385 ft 408 kts 56°
2026-04-22 23:54 25.52158 126.62187 21967 ft 404 kts 56°
2026-04-22 23:54 25.53611 126.64842 21543 ft 401 kts 56°
2026-04-22 23:55 25.55052 126.67475 21127 ft 398 kts 56°
2026-04-22 23:55 25.56485 126.70091 20696 ft 396 kts 56°
2026-04-22 23:55 25.57914 126.72690 20269 ft 394 kts 56°
2026-04-22 23:55 25.59337 126.75276 19852 ft 392 kts 56°
2026-04-22 23:56 25.60753 126.77854 19421 ft 391 kts 56°
2026-04-22 23:56 25.62161 126.80420 19001 ft 389 kts 56°
2026-04-22 23:56 25.63563 126.82978 18576 ft 388 kts 56°
2026-04-22 23:56 25.64959 126.85528 18158 ft 387 kts 56°
2026-04-22 23:57 25.66349 126.88075 17688 ft 385 kts 56°
2026-04-22 23:57 25.67728 126.90605 17281 ft 382 kts 56°
2026-04-22 23:57 25.69098 126.93115 16877 ft 379 kts 56°
2026-04-22 23:57 25.70458 126.95610 16467 ft 377 kts 57°
2026-04-22 23:58 25.71811 126.98097 16062 ft 375 kts 57°
2026-04-22 23:58 25.73154 127.00568 15661 ft 373 kts 57°
2026-04-22 23:58 25.74494 127.03028 15263 ft 372 kts 57°
2026-04-22 23:58 25.75829 127.05481 14864 ft 371 kts 57°
2026-04-22 23:59 25.77159 127.07923 14470 ft 369 kts 57°
2026-04-22 23:59 25.78487 127.10358 14060 ft 369 kts 57°
2026-04-22 23:59 25.79811 127.12783 13764 ft 365 kts 58°
2026-04-22 23:59 25.81115 127.15179 13396 ft 362 kts 58°
2026-04-23 00:00 25.83703 127.19940 12593 ft 358 kts 58°
2026-04-23 00:00 25.84552 127.21508 12326 ft 357 kts 58°
2026-04-23 00:00 25.86257 127.24664 11792 ft 355 kts 58°
2026-04-23 00:01 25.87525 127.27011 11379 ft 354 kts 58°
2026-04-23 00:01 25.88915 127.29250 10967 ft 351 kts 47°
2026-04-23 00:01 25.90677 127.31102 10562 ft 348 kts 34°
2026-04-23 00:01 25.92012 127.32076 10297 ft 345 kts 26°
2026-04-23 00:02 25.94144 127.33181 10151 ft 332 kts 21°
2026-04-23 00:02 25.96225 127.34220 9953 ft 324 kts 21°
2026-04-23 00:02 25.98264 127.35250 9671 ft 321 kts 21°
2026-04-23 00:02 26.00294 127.36282 9253 ft 320 kts 22°
2026-04-23 00:03 26.02973 127.37643 8727 ft 319 kts 22°
2026-04-23 00:03 26.04986 127.38664 8328 ft 318 kts 21°
2026-04-23 00:03 26.06343 127.39352 8064 ft 317 kts 22°
2026-04-23 00:03 26.08343 127.40366 7672 ft 315 kts 22°
2026-04-23 00:04 26.10326 127.41369 7259 ft 308 kts 21°
2026-04-23 00:04 26.12221 127.42329 6901 ft 291 kts 21°
2026-04-23 00:04 26.14017 127.43241 6547 ft 276 kts 21°
2026-04-23 00:04 26.15741 127.44116 6212 ft 271 kts 21°
2026-04-23 00:05 26.17442 127.44977 5875 ft 267 kts 21°
2026-04-23 00:05 26.19114 127.45823 5525 ft 261 kts 21°
2026-04-23 00:05 26.20761 127.46656 5213 ft 259 kts 21°
2026-04-23 00:05 26.22403 127.47484 4890 ft 260 kts 22°
2026-04-23 00:06 26.24059 127.48316 4566 ft 262 kts 23°
2026-04-23 00:06 26.25732 127.49158 4223 ft 265 kts 24°
2026-04-23 00:06 26.27409 127.50008 3867 ft 262 kts 22°
2026-04-23 00:06 26.29020 127.50831 3557 ft 248 kts 22°
2026-04-23 00:07 26.30558 127.51616 3278 ft 237 kts 22°
2026-04-23 00:07 26.31964 127.52444 2974 ft 222 kts 35°
2026-04-23 00:07 26.33039 127.53626 2708 ft 216 kts 57°
2026-04-23 00:07 26.33738 127.55089 2413 ft 212 kts 76°
2026-04-23 00:08 26.34019 127.56653 2118 ft 200 kts 95°
2026-04-23 00:08 26.34074 127.58175 1848 ft 194 kts 95°
2026-04-23 00:08 26.34126 127.59649 1579 ft 186 kts 98°
2026-04-23 00:08 26.33830 127.60956 1386 ft 163 kts 128°
2026-04-23 00:09 26.33158 127.61801 1303 ft 138 kts 153°
2026-04-23 00:09 26.32321 127.62229 1247 ft 128 kts 172°
2026-04-23 00:09 26.31431 127.62328 1256 ft 130 kts 179°
2026-04-23 00:09 26.30522 127.62405 1205 ft 131 kts 179°
2026-04-23 00:10 26.29620 127.62478 1207 ft 132 kts 179°
2026-04-23 00:10 26.28706 127.62552 1206 ft 131 kts 179°
2026-04-23 00:10 26.27795 127.62624 1208 ft 132 kts 179°
2026-04-23 00:10 26.26882 127.62696 1188 ft 132 kts 179°
2026-04-23 00:11 26.25968 127.62767 1078 ft 132 kts 179°
2026-04-23 00:11 26.25056 127.62839 943 ft 131 kts 181°
2026-04-23 00:11 26.24139 127.62911 783 ft 134 kts 181°
2026-04-23 00:11 26.23221 127.63015 613 ft 132 kts 172°
2026-04-23 00:12 26.22303 127.63123 500 ft 131 kts 179°
2026-04-23 00:12 26.21408 127.63193 348 ft 130 kts 177°
2026-04-23 00:12 26.20501 127.63238 141 ft 130 kts 179°
2026-04-23 00:12 26.19626 127.63275 28 ft 117 kts 179°
2026-04-23 00:13 26.18996 127.63300 15 ft 50 kts 178°
2026-04-23 00:13 26.18774 127.63346 15 ft 28 kts 150°
2026-04-23 00:13 26.18648 127.63434 17 ft 14 kts 139°
2026-04-23 00:13 26.18667 127.63506 17 ft 11 kts 13°
2026-04-23 00:14 26.18745 127.63505 17 ft 12 kts 356°
2026-04-23 00:14 26.18833 127.63500 17 ft 13 kts 357°
2026-04-23 00:14 26.18927 127.63495 17 ft 14 kts 356°
2026-04-23 00:14 26.19030 127.63491 17 ft 15 kts 357°
2026-04-23 00:15 26.19144 127.63485 17 ft 18 kts 358°
2026-04-23 00:15 26.19290 127.63479 17 ft 23 kts 358°
2026-04-23 00:15 26.19468 127.63470 17 ft 27 kts 357°
2026-04-23 00:15 26.19653 127.63462 17 ft 26 kts 358°
2026-04-23 00:16 26.19828 127.63453 17 ft 25 kts 358°
2026-04-23 00:16 26.19994 127.63445 17 ft 23 kts 358°
2026-04-23 00:16 26.20151 127.63438 17 ft 21 kts 358°
2026-04-23 00:16 26.20267 127.63435 17 ft 11 kts
2026-04-23 00:17 26.20300 127.63489 17 ft 9 kts 82°
2026-04-23 00:17 26.20304 127.63556 17 ft 9 kts 87°
2026-04-23 00:17 26.20307 127.63630 17 ft 13 kts 87°
2026-04-23 00:17 26.20311 127.63769 17 ft 23 kts 87°
2026-04-23 00:18 26.20319 127.63950 17 ft 23 kts 87°
2026-04-23 00:18 26.20326 127.64128 17 ft 23 kts 87°
2026-04-23 00:18 26.20332 127.64302 17 ft 22 kts 87°
2026-04-23 00:18 26.20338 127.64466 18 ft 17 kts 87°
2026-04-23 00:19 26.20344 127.64595 18 ft 17 kts 88°
2026-04-23 00:19 26.20398 127.64681 17 ft 14 kts 27°
2026-04-23 00:19 26.20481 127.64728 17 ft 13 kts 27°
2026-04-23 00:19 26.20564 127.64747 17 ft 12 kts 358°
2026-04-23 00:20 26.20652 127.64743 17 ft 14 kts 357°
2026-04-23 00:20 26.20767 127.64738 17 ft 17 kts 358°
2026-04-23 00:20 26.20873 127.64742 18 ft 14 kts 22°
2026-04-23 00:20 26.20914 127.64818 19 ft 11 kts 84°
2026-04-23 00:21 26.20945 127.64878 20 ft 8 kts 28°
2026-04-23 00:21 26.21002 127.64884 20 ft 8 kts 359°
2026-04-23 00:21 26.21043 127.64885 20 ft 3 kts 19°
2026-04-23 00:21 26.21053 127.64902 21 ft 4 kts 69°
2026-04-23 00:22 26.21058 127.64949 21 ft 7 kts 88°
2026-04-23 00:22 26.21058 127.64972 22 ft 2 kts 88°
2026-04-23 00:22 26.21059 127.64978 22 ft 0 kts 88°